Terminal Aerodrome Forecast
Issued by NWS

Current Version | Previous Version | Graphics & Text | Print | Product List | Glossary On
Versions: 1 2 3 4 5 6 7 8 9 10 11 12 13 14 15 16 17 18 19 20
429
FTUS41 KPBZ 242330
TAFMGW
TAF
KMGW 242330Z 2500/2524 22008KT P6SM BKN250
     FM250800 22005KT P6SM BKN080
     FM252300 VRB03KT P6SM BKN050=

USA.gov is the U.S. government's official web portal to all federal, state and local government web resources and services.